Wind_Speed
61 58 54 52 47 41 42 39 37 36 33 32 35 37 40 33 37 43 44 48 50 42 44 43 46 49 51 49 51 52 50 49 38 41 35 35 39 41 49 47 47 45 41
50 46 46 42 37 36 36 34 31 30 32 32 33 33 31 33 30 31 39 37 40 43 48 48 48 53 50 46 45 41 47 43 42 33 33 38 38 43 45 46 44 43 41
40 37 39 35 31 34 34 32 31 34 33 34 32 31 34 38 38 33 38 46 50 53 51 46 44 43 41 43 40 36 37 38 31 36 33 33 46 39 45 51 47 45 46
30 31 33 30 32 36 34 33 35 36 37 36 34 43 38 38 40 49 51 54 54 53 49 44 42 42 41 39 37 35 32 30 32 30 35 40 42 49 51 52 52 53 54
27 29 29 34 37 36 34 37 39 42 41 43 49 48 44 41 51 52 54 53 44 43 44 41 38 34 33 37 39 39 33 31 30 30 34 41 47 52 53 55 56 57 60
25 28 34 39 37 35 37 40 41 42 36 45 51 49 48 57 52 51 54 50 41 37 40 34 35 35 31 26 20 27 23 27 37 34 45 45 53 57 56 60 60 62 67
26 32 40 38 39 40 43 41 41 40 43 57 56 57 60 57 55 49 47 50 42 37 32 32 30 30 24 25 22 22 29 29 34 38 45 56 56 58 62 63 64 70 73
33 38 40 41 41 45 42 42 45 48 59 62 62 59 55 52 48 51 44 42 45 34 34 28 28 25 23 21 22 21 25 30 34 46 53 56 57 60 64 66 71 75 74
38 42 43 46 47 44 47 51 55 66 68 67 61 59 52 50 46 43 40 36 35 30 31 23 22 22 18 20 21 24 27 33 44 56 54 56 59 62 67 71 74 74 75
44 45 47 45 46 52 58 62 70 73 76 70 60 56 50 48 45 41 38 35 33 28 23 20 18 18 17 14 21 25 36 43 45 49 53 56 60 67 70 72 74 74 69
46 48 51 53 55 60 66 70 76 76 74 69 56 49 48 45 35 38 32 32 27 24 20 21 20 15 14 18 24 32 40 42 46 51 56 60 65 70 72 73 70 65 59
51 55 58 66 72 74 73 75 79 78 74 71 60 51 47 42 37 34 33 34 30 29 25 21 20 15 17 20 30 38 41 44 48 54 59 64 68 70 71 68 61 56 54
53 57 70 81 84 81 79 77 78 76 68 65 61 55 48 43 39 34 36 33 28 25 18 14 8 12 19 28 33 36 41 46 51 57 62 66 69 67 65 59 53 50 46
65 76 85 91 89 84 82 78 77 74 65 60 58 61 50 45 39 41 34 21 19 17 14 5 11 18 26 29 34 38 42 48 54 59 64 66 62 59 55 50 46 42 39
79 86 95 92 85 84 83 77 76 74 66 52 56 56 46 42 40 32 19 19 18 13 8 13 18 20 23 30 34 39 45 51 57 61 59 55 52 49 44 42 39 36 34
87 92 95 90 86 82 75 70 74 72 60 57 54 48 45 39 35 34 26 20 12 5 12 14 19 21 27 31 35 42 47 53 55 51 48 46 43 40 38 37 35 34 32
88 93 94 91 87 81 69 71 74 74 65 62 57 49 46 40 33 25 20 15 7 10 13 15 19 23 26 31 38 44 48 48 43 41 38 36 36 36 36 34 33 31 30
90 89 91 89 81 75 64 65 62 62 59 54 54 51 45 37 26 20 17 13 12 11 12 16 19 22 27 34 40 43 42 38 35 33 33 34 34 32 32 32 34 35 35
89 85 85 82 79 75 66 59 61 54 56 47 44 43 41 35 29 23 19 14 11 11 12 15 18 23 30 36 38 38 32 29 29 31 34 33 32 32 31 33 36 36 37
84 85 84 80 72 64 61 56 56 51 53 54 51 46 39 32 27 21 14 10 6 8 11 14 19 26 32 34 33 28 25 27 30 32 32 33 34 35 37 38 39 41 44
80 77 76 78 73 68 64 56 55 60 56 52 48 41 37 29 25 16 11 6 5 7 10 15 22 28 31 29 25 24 26 27 28 31 33 35 37 40 43 46 47 49 50
75 75 76 76 71 68 62 53 60 55 52 49 46 40 33 26 19 14 9 5 4 6 11 18 24 27 27 23 25 25 25 26 29 33 35 39 43 46 49 52 55 56 56
71 70 67 66 65 59 55 60 57 55 49 44 41 38 29 24 18 13 9 4 2 6 13 21 23 25 22 26 26 25 27 30 34 38 41 47 53 58 62 64 65 67 67
68 67 65 55 55 57 59 62 54 51 47 41 37 32 26 22 18 13 8 4 5 8 16 20 22 21 27 28 25 25 29 33 38 41 48 55 59 63 67 72 74 74 75
62 60 60 51 50 56 62 61 51 49 47 41 36 30 24 21 17 12 8 7 6 11 17 19 20 23 27 23 24 26 30 35 40 47 54 60 63 65 68 72 75 78 79
59 54 54 51 58 56 55 57 54 47 41 39 33 28 24 20 16 12 9 8 8 14 18 18 19 24 24 25 26 27 34 41 44 51 57 59 61 64 66 69 72 73 74
Wind_Direction
267 263 260 255 252 248 247 242 237 232 229 222 217 216 217 213 219 219 214 214 218 213 207 203 201 203 201 214 222 231 241 251 264 268 267 288 293 294 305 307 300 294 290
260 256 251 246 239 233 232 227 224 214 207 205 197 200 188 185 190 202 204 201 192 186 186 192 200 200 204 216 226 235 245 254 263 267 283 282 284 297 309 312 307 296 291
250 243 238 231 219 216 213 212 207 200 195 189 178 172 165 171 176 185 178 169 172 177 186 190 192 200 207 219 225 238 251 251 262 279 281 280 302 302 310 311 300 295 292
239 230 224 214 204 202 202 200 197 188 181 151 167 159 147 180 172 164 167 169 174 181 186 189 196 203 210 220 228 240 245 271 278 274 285 295 304 310 313 307 297 296 296
225 217 204 193 193 196 192 191 185 180 181 171 169 164 160 165 160 166 166 172 175 177 177 190 199 204 214 227 234 244 268 266 274 286 296 303 309 310 307 306 304 304 301
209 199 187 186 184 187 182 181 181 174 172 162 154 149 154 155 160 165 170 176 171 178 189 189 200 213 226 232 241 254 254 266 281 290 305 308 311 309 303 303 305 302 300
190 183 181 178 177 175 176 176 170 162 156 148 147 148 156 162 161 163 177 183 180 178 178 191 200 210 228 255 239 246 262 273 287 297 306 310 310 304 302 304 304 302 301
176 177 175 168 167 169 169 161 154 151 149 145 143 148 154 158 163 162 168 181 191 191 196 200 221 228 236 238 251 260 281 285 297 309 310 307 303 304 305 304 304 304 304
166 170 163 159 163 162 155 151 150 149 143 138 147 153 152 161 160 164 171 176 182 192 204 195 220 229 243 245 266 274 292 303 311 309 303 303 304 304 305 305 306 307 307
161 161 158 157 151 151 149 147 147 148 148 147 150 153 155 160 156 160 168 182 176 176 198 202 209 216 238 259 283 285 306 309 304 303 305 306 307 306 307 309 310 309 308
157 154 149 147 148 147 143 147 149 148 148 141 143 153 164 163 154 161 162 175 193 190 196 195 208 218 246 276 297 306 309 305 305 305 306 307 308 310 310 311 312 311 309
152 152 149 144 140 142 147 151 153 149 148 145 147 152 154 149 151 155 160 164 174 178 185 198 207 238 293 298 307 307 306 304 305 308 308 311 312 312 313 314 313 312 312
152 150 143 138 142 144 147 150 153 153 149 149 149 152 150 147 152 160 166 166 167 178 182 189 252 278 297 303 308 304 303 307 309 311 313 315 315 316 316 317 316 317 318
148 144 142 143 145 146 149 149 151 149 146 146 150 150 152 156 157 160 158 157 170 187 201 269 292 292 297 301 304 307 310 312 314 317 318 318 319 320 321 323 325 326 328
147 143 146 147 148 149 148 152 152 152 150 153 153 152 154 160 167 163 165 179 185 201 241 294 284 286 304 306 310 312 315 317 320 320 322 322 323 324 328 335 337 340 343
150 149 149 149 150 150 150 157 160 155 155 158 159 154 160 164 165 171 171 178 186 232 264 267 297 305 307 314 316 319 320 323 324 325 327 328 328 335 342 348 352 356 358
153 149 153 153 153 150 157 159 164 160 160 159 161 158 163 159 163 163 170 178 191 240 264 285 301 312 317 320 323 325 327 329 332 333 335 341 346 349 355 360 7 11 14
152 154 156 158 152 154 157 163 164 164 162 157 159 162 166 169 165 170 179 197 225 247 272 299 313 319 325 328 329 330 332 337 340 346 355 360 4 8 11 17 21 26 31
157 161 158 155 157 157 162 166 166 156 151 151 157 156 153 155 158 175 186 201 225 262 297 311 321 330 335 334 333 337 344 349 0 6 11 16 21 26 30 35 38 41 44
160 162 160 159 157 157 157 168 168 165 157 153 153 154 154 159 169 175 186 202 247 289 308 325 336 342 340 338 344 355 6 14 15 18 23 29 36 41 44 47 49 49 50
162 162 160 159 159 161 163 161 152 149 149 151 151 153 157 161 167 173 183 207 264 302 332 343 350 348 344 352 4 22 24 23 27 35 38 41 46 49 53 55 56 57 58
167 167 165 164 163 169 167 160 153 151 154 156 156 159 156 163 166 172 187 211 272 346 354 0 357 351 0 16 35 34 37 42 45 47 50 57 60 61 61 62 63 64 64
175 174 172 170 166 164 156 155 154 156 157 157 158 159 158 161 163 169 184 201 39 15 13 8 1 8 28 47 48 49 56 59 62 62 68 71 71 71 71 71 70 70 70
175 176 176 172 173 162 156 158 155 160 160 159 159 158 164 163 161 170 176 140 67 33 21 13 18 36 53 57 63 62 63 66 73 75 77 76 75 75 74 74 73 73 73
175 177 173 174 163 155 158 160 162 163 164 163 161 163 166 162 162 169 159 109 75 40 29 26 36 58 60 59 64 65 68 80 82 82 81 79 76 76 77 76 75 75 74
179 178 178 162 154 161 163 166 169 167 166 164 163 161 160 160 163 167 139 117 75 46 39 43 52 67 66 66 70 73 86 88 88 85 84 80 79 78 78 78 77 78 77
Height
10316 10321 10328 10333 10343 10353 10357 10362 10367 10374 10384 10395 10403 10410 10422 10433 10446 10456 10469 10480 10493 10506 10518 10530 10541 10552 10562 10571 10576 10581 10586 10590 10591 10594 10593 10591 10588 10584 10579 10571 10565 10561 10556
10295 10304 10309 10319 10331 10339 10345 10351 10359 10369 10377 10386 10396 10406 10419 10432 10444 10454 10462 10475 10487 10500 10513 10525 10538 10547 10556 10563 10571 10576 10579 10581 10584 10583 10583 10580 10577 10572 10566 10559 10552 10547 10544
10279 10289 10295 10308 10320 10328 10335 10345 10354 10362 10371 10381 10393 10407 10421 10431 10439 10451 10464 10475 10487 10500 10512 10524 10535 10544 10552 10558 10565 10570 10572 10573 10575 10574 10573 10569 10566 10558 10551 10544 10538 10533 10529
10269 10276 10285 10299 10310 10318 10329 10339 10348 10357 10369 10381 10396 10408 10425 10433 10441 10454 10465 10478 10488 10499 10512 10524 10532 10539 10547 10554 10560 10563 10565 10567 10566 10565 10563 10558 10551 10545 10536 10530 10523 10517 10512
10258 10266 10278 10290 10301 10312 10324 10332 10342 10354 10364 10373 10390 10405 10419 10432 10447 10457 10470 10479 10490 10501 10513 10521 10531 10539 10545 10550 10554 10558 10560 10559 10557 10554 10550 10544 10536 10529 10521 10513 10506 10499 10493
10251 10261 10272 10281 10296 10308 10318 10328 10341 10353 10366 10376 10392 10406 10421 10436 10449 10462 10473 10482 10492 10501 10512 10522 10529 10535 10542 10546 10549 10551 10551 10550 10547 10543 10538 10530 10522 10513 10503 10495 10488 10481 10475
10247 10257 10265 10278 10291 10304 10314 10327 10342 10355 10367 10381 10396 10412 10426 10437 10449 10461 10474 10483 10493 10503 10512 10520 10527 10532 10537 10541 10543 10542 10543 10540 10537 10532 10525 10516 10505 10496 10487 10479 10470 10463 10455
10242 10253 10264 10277 10290 10304 10316 10330 10344 10358 10373 10386 10404 10418 10432 10443 10452 10462 10475 10484 10496 10503 10512 10518 10524 10530 10533 10535 10536 10536 10534 10532 10528 10520 10511 10500 10490 10481 10472 10462 10454 10443 10432
10241 10253 10264 10277 10291 10305 10319 10333 10346 10362 10378 10391 10407 10421 10432 10444 10452 10464 10476 10487 10496 10504 10511 10517 10522 10526 10528 10530 10531 10530 10527 10522 10514 10506 10495 10486 10477 10466 10457 10446 10435 10421 10410
10242 10255 10266 10280 10295 10308 10321 10335 10352 10365 10378 10391 10411 10426 10436 10445 10457 10468 10479 10488 10497 10504 10511 10515 10519 10523 10524 10525 10524 10522 10517 10510 10501 10492 10483 10474 10463 10452 10440 10428 10416 10403 10387
10246 10259 10272 10285 10300 10314 10328 10343 10356 10368 10383 10396 10416 10428 10440 10450 10462 10472 10482 10490 10497 10504 10509 10513 10516 10519 10521 10520 10518 10513 10506 10497 10488 10480 10471 10461 10449 10436 10423 10410 10396 10381 10369
10253 10265 10276 10290 10305 10322 10336 10349 10362 10373 10385 10395 10413 10430 10443 10454 10463 10474 10483 10490 10496 10502 10508 10512 10515 10516 10515 10513 10509 10502 10493 10486 10478 10470 10459 10447 10434 10420 10406 10392 10379 10365 10352
10262 10273 10285 10298 10314 10329 10343 10358 10369 10380 10393 10403 10415 10432 10448 10458 10469 10477 10484 10492 10499 10504 10508 10511 10512 10511 10509 10506 10499 10491 10485 10478 10469 10458 10446 10433 10419 10405 10390 10377 10363 10349 10336
10269 10280 10292 10307 10322 10335 10350 10366 10378 10388 10400 10413 10425 10439 10451 10461 10470 10478 10487 10494 10499 10503 10506 10508 10508 10506 10502 10496 10491 10485 10478 10469 10458 10447 10434 10419 10405 10391 10378 10364 10351 10337 10325
10273 10285 10299 10313 10328 10344 10356 10370 10382 10393 10407 10421 10431 10442 10454 10465 10474 10482 10489 10494 10499 10502 10504 10505 10503 10499 10495 10490 10485 10478 10469 10460 10448 10435 10422 10408 10394 10382 10369 10356 10342 10330 10317
10276 10289 10304 10320 10335 10349 10364 10375 10385 10396 10410 10421 10435 10447 10460 10468 10475 10483 10489 10495 10499 10501 10501 10500 10499 10495 10490 10485 10479 10471 10462 10451 10439 10426 10413 10400 10388 10376 10364 10352 10339 10326 10314
10290 10302 10314 10327 10342 10355 10368 10379 10389 10394 10409 10425 10439 10451 10459 10469 10477 10484 10490 10495 10499 10499 10499 10498 10495 10491 10487 10481 10473 10464 10454 10442 10431 10420 10409 10397 10385 10372 10361 10350 10339 10328 10316
10302 10312 10322 10334 10349 10362 10375 10387 10396 10408 10420 10431 10442 10454 10465 10474 10481 10487 10493 10497 10498 10498 10497 10495 10493 10490 10483 10476 10467 10457 10447 10437 10428 10417 10407 10396 10384 10373 10362 10350 10339 10328 10318
10313 10324 10334 10345 10356 10369 10382 10394 10403 10413 10427 10440 10452 10461 10470 10477 10482 10488 10493 10497 10497 10497 10496 10494 10491 10486 10480 10472 10463 10453 10444 10436 10427 10417 10407 10397 10387 10376 10365 10355 10344 10335 10327
10321 10332 10344 10354 10366 10377 10390 10398 10410 10422 10434 10443 10453 10462 10470 10478 10485 10491 10495 10497 10497 10497 10496 10493 10489 10484 10477 10468 10459 10452 10443 10436 10428 10419 10410 10400 10390 10381 10370 10361 10352 10343 10332
10329 10339 10351 10361 10373 10385 10394 10406 10418 10429 10441 10452 10460 10468 10475 10482 10488 10493 10496 10496 10497 10497 10495 10492 10488 10482 10475 10466 10459 10452 10446 10440 10433 10424 10416 10406 10396 10387 10378 10370 10360 10351 10343
10337 10347 10357 10367 10379 10389 10401 10414 10427 10437 10446 10454 10463 10471 10479 10486 10491 10495 10496 10497 10498 10497 10495 10492 10487 10481 10474 10468 10461 10456 10452 10447 10440 10431 10423 10414 10405 10396 10388 10380 10372 10365 10358
10344 10357 10366 10376 10387 10399 10413 10423 10432 10441 10450 10459 10467 10474 10481 10488 10493 10495 10497 10498 10499 10498 10496 10493 10488 10482 10476 10471 10466 10462 10459 10455 10448 10440 10433 10425 10417 10409 10401 10394 10387 10381 10374
10353 10364 10375 10387 10396 10409 10418 10428 10438 10447 10456 10464 10472 10479 10485 10490 10494 10497 10499 10500 10500 10500 10498 10494 10489 10484 10480 10476 10473 10470 10467 10463 10457 10451 10444 10437 10430 10423 10416 10410 10403 10397 10391
10363 10372 10384 10394 10403 10414 10425 10434 10443 10452 10461 10469 10476 10482 10489 10493 10496 10499 10500 10502 10503 10502 10500 10495 10492 10488 10485 10483 10481 10478 10475 10472 10467 10462 10456 10451 10444 10438 10432 10426 10420 10415 10410
10370 10380 10390 10401 10409 10418 10428 10438 10447 10456 10465 10473 10479 10486 10492 10495 10499 10501 10502 10504 10505 10503 10501 10498 10495 10493 10492 10490 10489 10487 10484 10481 10478 10473 10469 10464 10459 10454 10449 10444 10438 10433 10429